Location: Unspecified
(0.0000°N, 0.0000°E)
Time: 20:03:10
(UTC+00:00)

SR - Pass Details

Date: 16 June 2025
Orbit: 572 x 853 km, 66.7° (Epoch: 13 July)

Event Time Altitude Azimuth Distance (km) Brightness Sun altitude
Rises 16:52:28 0° 231° (SW) 3,311 ? 15.7°
Reaches altitude 10° 16:55:37 10° 249° (WSW) 2,417 ? 14.9°
Maximum altitude 16:59:19 18° 291° (WNW) 1,941 ? 14.1°
Drops below altitude 10° 17:03:06 10° 332° (NNW) 2,466 ? 13.2°
Sets 17:06:23 0° 351° (N) 3,404 ? 12.5°
